Location: Le Petit-Vavre
(46.5081°N, 1.5239°E)
Time: 16:05:01
(UTC+00:00)

FALCON 9 DEB - Pass Details

Date: 03 March 2021
Orbit: 371 x 387 km, 53.0° (Epoch: 17 April)

Event Time Altitude Azimuth Distance (km) Brightness Sun altitude
Rises 19:08:21 0° 292° (WNW) 2,302 8.4 -15.5°
Reaches altitude 10° 19:10:39 10° 306° (NW) 1,444 6.7 -15.9°
Maximum altitude 19:13:25 25° 5° (N) 845 4.6 -16.3°
Enters shadow 19:14:20 22° 33° (NNE) 931 4.5 -16.5°
